Bournemouth, United Kingdom

3:38 PM GMT on February 20, 2017 (GMT +0000)
Bournemouth

Weather History for EGHH - September, 2013

Change the Weather History Date:

Monday, September 16, 2013

  Actual Average Record
Temperature  
Mean Temperature 53 °F -  
Max Temperature 61 °F 62 °F 75 °F (2003)
Min Temperature 45 °F 46 °F 37 °F (2004)
Degree Days  
Heating Degree Days 12    
Growing Degree Days 3 (Base 50)    
Moisture  
Dew Point 42 °F    
Average Humidity 69    
Maximum Humidity 89    
Minimum Humidity 37    
Precipitation  
Precipitation 0.01 in 0.10 in - ()
Sea Level Pressure  
Sea Level Pressure 29.68 in    
Wind  
Wind Speed 11 mph ()    
Max Wind Speed 29 mph    
Max Gust Speed 34 mph    
Visibility 7.5 miles    
Events Rain    
Averages and records for this station are not official NWS values.
T = Trace of Precipitation, MM = Missing Value Source: Averaged Metar Reports

Daily Weather History Graph

Daily Weather History Graph

Search for Another Location

Airport or City:

Trip Planner

Search our weather history database for the weather conditions in past years. The results will help you decide how hot, cold, wet, or windy it might be!

Date:

Astronomy

Sep. 16, 2013 Rise Set
Actual Time 6:44 AM BST 7:18 PM BST
Civil Twilight 6:11 AM BST 7:51 PM BST
Nautical Twilight 5:31 AM BST 8:31 PM BST
Astronomical Twilight 4:50 AM BST 9:12 PM BST
Moon 5:31 PM BST (9/16) 2:56 AM BST (9/16)
Length of Visible Light 13h 40m
Length of Day
12h 34m
Waxing Gibbous, 88% of the Moon is Illuminated
Sep 16
Waxing Gibbous
Sep 19
Full
Sep 27
Last Quarter
Oct 5
New
Oct 12
First Quarter

Hourly Weather History & Observations

Time (BST) Temp. Windchill Dew Point Humidity Pressure Visibility Wind Dir Wind Speed Gust Speed Precip Events Conditions
12:50 AM 50 °F - 46 °F 79% 29.70 in 10 mi West 9.2 mph - -   Scattered Clouds
4:50 AM 50.0 °F - 44.6 °F 82% 29.68 in 6.2 mi West 6.9 mph - N/A   Partly Cloudy
5:50 AM 46.4 °F 43.5 °F 42.8 °F 87% 29.68 in 6.2 mi WSW 5.8 mph - N/A   Partly Cloudy
6:20 AM 46.4 °F 42.4 °F 42.8 °F 87% 29.68 in 6.2 mi West 8.1 mph - N/A   Scattered Clouds
6:50 AM 46 °F - 44 °F 89% 29.70 in 9 mi West 6.9 mph - - Rain Rain
6:50 AM 46.4 °F 42.9 °F 42.8 °F 87% 29.68 in 6.2 mi West 6.9 mph - N/A   Mostly Cloudy
7:20 AM 48.2 °F - 44.6 °F 87% 29.68 in 6.2 mi NW 6.9 mph - N/A   Mostly Cloudy
7:50 AM 48.2 °F - 44.6 °F 87% 29.68 in - SW 4.6 mph - N/A   Clear
8:20 AM 50.0 °F - 44.6 °F 82% 29.68 in - WSW 8.1 mph - N/A   Clear
8:50 AM 51.8 °F - 44.6 °F 76% 29.68 in 6.2 mi WNW 13.8 mph - N/A   Partly Cloudy
9:20 AM 53.6 °F - 44.6 °F 72% 29.68 in 6.2 mi West 11.5 mph - N/A   Partly Cloudy
9:50 AM 54 °F - 46 °F 66% 29.69 in 19 mi West 17.3 mph - - Rain Rain
9:50 AM 53.6 °F - 44.6 °F 72% 29.68 in 6.2 mi West 17.3 mph - N/A   Partly Cloudy
10:20 AM 53.6 °F - 42.8 °F 67% 29.68 in 6.2 mi WNW 20.7 mph 32.2 mph N/A   Partly Cloudy
10:50 AM 53.6 °F - 42.8 °F 67% 29.68 in 6.2 mi West 23.0 mph - N/A   Partly Cloudy
11:20 AM 57.2 °F - 44.6 °F 63% 29.68 in 6.2 mi West 17.3 mph - N/A   Partly Cloudy
11:50 AM 59.0 °F - 44.6 °F 59% 29.65 in 6.2 mi West 19.6 mph - N/A   Partly Cloudy
12:20 PM 57.2 °F - 41.0 °F 55% 29.65 in 6.2 mi West 18.4 mph - N/A   Mostly Cloudy
12:50 PM 57 °F - 43 °F 49% 29.67 in 17 mi WNW 18.4 mph - -   Mostly Cloudy
12:50 PM 57.2 °F - 42.8 °F 59% 29.65 in 6.2 mi WNW 20.7 mph - N/A Rain Light Rain Showers
1:20 PM 55.4 °F - 44.6 °F 67% 29.65 in 6.2 mi WNW 13.8 mph - N/A   Mostly Cloudy
1:50 PM 59.0 °F - 42.8 °F 55% 29.65 in 6.2 mi WNW 19.6 mph - N/A   Partly Cloudy
2:20 PM 59.0 °F - 39.2 °F 48% 29.65 in 6.2 mi NW 20.7 mph - N/A   Partly Cloudy
2:50 PM 59.0 °F - 39.2 °F 48% 29.65 in 6.2 mi West 28.8 mph - N/A   Partly Cloudy
3:20 PM 60.8 °F - 41.0 °F 48% 29.65 in 6.2 mi WNW 23.0 mph 34.5 mph N/A   Scattered Clouds
3:50 PM 57 °F - 38 °F 37% 29.66 in 19 mi WNW 21.9 mph - -   Partly Cloudy
4:20 PM 60.8 °F - 41.0 °F 48% 29.65 in 6.2 mi WNW 19.6 mph - N/A   Partly Cloudy
4:50 PM 57.2 °F - 41.0 °F 55% 29.65 in 6.2 mi NW 17.3 mph - N/A   Scattered Clouds
5:20 PM 59.0 °F - 37.4 °F 45% 29.65 in 6.2 mi NW 20.7 mph - N/A   Partly Cloudy
5:50 PM 55.4 °F - 41.0 °F 58% 29.68 in 6.2 mi WNW 13.8 mph - N/A Rain Light Rain Showers
6:50 PM 52 °F - 40 °F 54% 29.70 in 22 mi WNW 16.1 mph - - Rain Rain
6:50 PM 51.8 °F - 41.0 °F 67% 29.68 in 6.2 mi WNW 16.1 mph - N/A   Partly Cloudy
7:20 PM 51.8 °F - 41.0 °F 67% 29.68 in 6.2 mi WNW 11.5 mph - N/A   Scattered Clouds
7:50 PM 50.0 °F - 41.0 °F 71% 29.68 in 6.2 mi West 10.4 mph - N/A   Partly Cloudy
8:20 PM 48.2 °F - 41.0 °F 76% 29.68 in - West 6.9 mph - N/A   Clear
8:50 PM 48.2 °F - 41.0 °F 76% 29.71 in - WSW 5.8 mph - N/A   Clear
9:20 PM 48.2 °F - 42.8 °F 82% 29.68 in - SW 6.9 mph - N/A   Clear
9:50 PM 48.2 °F - 41.0 °F 76% 29.68 in 6.2 mi West 6.9 mph - N/A   Unknown
10:20 PM 48.2 °F - 42.8 °F 82% 29.68 in - SW 6.9 mph - N/A   Clear
10:50 PM 48.2 °F - 42.8 °F 82% 29.68 in - West 9.2 mph - N/A   Clear
11:20 PM 48.2 °F - 42.8 °F 82% 29.71 in - West 6.9 mph - N/A   Clear
11:50 PM 46.4 °F 42.4 °F 42.8 °F 87% 29.71 in 6.2 mi West 8.1 mph - N/A   Unknown